Regional Weather Roundup
Issued by NWS Burlington, VT

Home | Current Version | Previous Version | Text Only | Print | Product List | Glossary On
Versions: 1 2 3 4 5 6 7 8 9 10 11 12 13 14 15 16 17 18 19 20 21 22 23 24 25 26 27 28 29 30 31 32 33 34 35 36 37 38 39 40 41 42 43 44 45 46 47 48 49 50
000
ASUS41 KBTV 061830
RWRBTV
VERMONT REGIONAL WEATHER ROUNDUP
NATIONAL WEATHER SERVICE BURLINGTON VT
200 PM EDT WED MAY 06 2015

NOTE: "FAIR" INDICATES FEW OR NO CLOUDS BELOW 12,000 FEET WITH NO
SIGNIFICANT WEATHER AND/OR OBSTRUCTIONS TO VISIBILITY.

* THESE REPORTS ARE NOT UNDER NWS QUALITY CONTROL AND/OR DO NOT
  REPORT WEATHER SUCH AS PRECIPITATION AND FOG.

VTZ001>019-061900-
_____VERMONT_____


CITY           SKY/WX    TMP DP  RH WIND       PRES   REMARKS
BURLINGTON       N/A     75  28  17 VRB6      30.22F
6HR MIN TEMP:  52; 6HR MAX TEMP:  75;

MONTPELIER       N/A     70  30  22 N12       30.27F
6HR MIN TEMP:  48; 6HR MAX TEMP:  70;

MORRISVILLE      N/A     73  31  21 NW10      30.24F
6HR MIN TEMP:  46; 6HR MAX TEMP:  73;

ST. JOHNSBURY*   N/A     73  30  20 MISG      30.20F
6HR MIN TEMP:  45; 6HR MAX TEMP:  74;

LYNDONVILLE*     N/A     71  24  17 SW14G22   30.23F
6HR MIN TEMP:  47; 6HR MAX TEMP:  70;

MIDDLEBURY*      N/A     73  25  16 NW7       30.22F
6HR MIN TEMP:  54; 6HR MAX TEMP:  73;

RUTLAND*         N/A     72  28  20 N9        30.23F
6HR MIN TEMP:  48; 6HR MAX TEMP:  72;

SPRINGFIELD      N/A     72  28  19 SE8       30.22F
6HR MIN TEMP:  48; 6HR MAX TEMP:  73;

HIGHGATE*        N/A     73  32  22 NW6       30.21F
NEWPORT*         N/A     68  35  29 W12       30.22F
6HR MIN TEMP:  46; 6HR MAX TEMP:  68;

BENNINGTON       N/A     74  30  19 N9G20     30.23F
6HR MIN TEMP:  57; 6HR MAX TEMP:  74;

SUTTON*          N/A     68 N/A N/A MISG        N/A
GALLUP MILLS*    N/A     70 N/A N/A MISG        N/A
MT. MANSFIELD*   N/A     57 N/A N/A CALM        N/A

_____LAKE CHAMPLAIN_____


CITY           SKY/WX    TMP DP  RH WIND       PRES   REMARKS
BURTON ISLAND*   N/A     66  32  28 SE5         N/A
COLCHESTER RF*   N/A     64  28  25 SW12        N/A
DIAMOND ISL*     N/A     68  34  28 NW2         N/A

$$

NYZ007-026>031-035-052-083-061900-
_____NORTHERN NEW YORK_____


CITY           SKY/WX    TMP DP  RH WIND       PRES   REMARKS
PLATTSBURGH      N/A     70  31  23 SE14      30.21F
6HR MIN TEMP:  54; 6HR MAX TEMP:  71;

SARANAC LAKE     N/A     70  28  21 SW12G17   30.24F
6HR MIN TEMP:  44; 6HR MAX TEMP:  71;

MASSENA          N/A     74  35  24 W13       30.24F
6HR MIN TEMP:  53; 6HR MAX TEMP:  75;

OGDENSBURG*    CLEAR     75  34  22 NW5       30.23F
POTSDAM*       CLEAR     73  39  29 N5        30.24F
STARK FALLS*     N/A     68 N/A N/A W5          N/A
WATERTOWN        N/A     72  42  34 SW9       30.25F
6HR MIN TEMP:  50; 6HR MAX TEMP:  72;

FT DRUM          N/A     74  35  23 S5        30.24F
6HR MIN TEMP:  52; 6HR MAX TEMP:  74;

ALBANY           N/A     74  27  17 VRB3      30.24F
6HR MIN TEMP:  59; 6HR MAX TEMP:  76;

GLENS FALLS      N/A     73  33  23 E6        30.24F
6HR MIN TEMP:  56; 6HR MAX TEMP:  74;


$$
NHZ002-005-011-061900-
_____NEW HAMPSHIRE_____


CITY           SKY/WX    TMP DP  RH WIND       PRES   REMARKS
LEBANON          N/A     74  31  20 VRB6      30.21F
6HR MIN TEMP:  49; 6HR MAX TEMP:  75;

KEENE            N/A     73  28  19 N3        30.23F
6HR MIN TEMP:  48; 6HR MAX TEMP:  73;

MT WASHINGTON  PTCLDY    41  25  52 NW33G44     N/A
6HR MIN TEMP:  32; 6HR MAX TEMP:  41;

PLYMOUTH         N/A     73  40  29 W7        30.19F
6HR MIN TEMP:  46; 6HR MAX TEMP:  74;

WHITEFIELD       N/A     71  29  21 NW12      30.21F
6HR MIN TEMP:  45; 6HR MAX TEMP:  73;


$$

_____REGIONAL QUEBEC LOCATIONS_____


CITY           SKY/WX    TMP DP  RH WIND       PRES   REMARKS
MONTREAL       PTCLDY    73  36  25 W18       30.20F
QUEBEC CITY    MOCLDY    63  36  36 NW17G31   30.14F
SHERBROOKE     PTCLDY    68  32  26 W17G26    30.18F

_____REGIONAL ONTARIO LOCATIONS_____


CITY           SKY/WX    TMP DP  RH WIND       PRES   REMARKS
OTTAWA         PTCLDY    75  34  22 NW10G21   30.23F

______KEY______
VSB  - VISIBILITY IN MILES
WCI  - WIND CHILL INDEX
HX   - HEAT INDEX
$$



USA.gov is the U.S. government's official web portal to all federal, state and local government web resources and services.